Regional Weather Roundup
Issued by NWS

Home | Current Version | Previous Version | Text Only | Print | Product List | Glossary Off
Versions: 1 2 3 4 5 6 7 8 9 10 11 12 13 14 15 16 17 18 19 20 21 22 23 24 25 26 27 28 29 30 31 32 33 34 35 36 37 38 39 40 41 42 43 44 45 46 47 48 49 50

000
ASUS45 KCYS 281710
RWRWY

WYOMING REGIONAL WEATHER ROUNDUP
NATIONAL WEATHER SERVICE CHEYENNE WY
1100 AM MDT TUE JUL 28 2015

NOTE:  "FAIR" INDICATES FEW OR NO CLOUDS BELOW 12,000 FEET
WITH NO SIGNIFICANT WEATHER AND/OR OBSTRUCTIONS TO VISIBILITY.

WYZ001-281800-
YELLOWSTONE NATIONAL PARK

CITY           SKY/WX    TMP DP  RH WIND       PRES   REMARKS
LK YELLOWSTONE   N/A     43  31  62 VRB6      30.38R
W YELLOWSTONE  NOT AVBL

$$
WYZ002>013-054>058-071-098>099-281800-
NORTHERN WYOMING

CITY           SKY/WX    TMP DP  RH WIND       PRES   REMARKS
JACKSON        FAIR      54  27  35 NW14      30.34S
CODY           FAIR      61  30  31 W15G25    30.20R
GREYBULL       FAIR      68  32  26 N7        30.14S
WORLAND        FAIR      69  27  20 NW17      30.15S
SHERIDAN       PTSUNNY   68  38  33 NW20G30   30.09S
BUFFALO        FAIR      65  37  35 N8        30.13R
GILLETTE         N/A     66  36  32 W20G26    30.09R
HULETT         FAIR      64  37  36 W24G33    30.07R
NEWCASTLE      FAIR      64  36  34 NW17G24   30.10S

$$
WYZ014>020-022>026-101>103-281800-
CENTRAL WYOMING

CITY           SKY/WX    TMP DP  RH WIND       PRES   REMARKS
BIG PINEY      FAIR      57  25  29 NW10      30.35S
PINEDALE       FAIR      54  27  35 W13G21    30.35S
DUBOIS         FAIR      52  27  37 N20G25    30.30F
LANDER         FAIR      64  31  28 VRB7      30.23R
RIVERTON       FAIR      66  23  19 W22G29    30.21S
CASPER         FAIR      67  23  19 W22G32    30.19R
DOUGLAS        FAIR      69  27  20 W22G30    30.16R

$$
WYZ021-027>030-104>119-281800-
SOUTHERN WYOMING

CITY           SKY/WX    TMP DP  RH WIND       PRES   REMARKS
EVANSTON       FAIR      59  12  15 VRB6G17   30.36S
KEMMERER       FAIR      55  23  28 W15G21    30.36S
FORT BRIDGER   SUNNY     61  18  18 W12G17    30.38S
ROCK SPRINGS   FAIR     N/A N/A N/A MISG      30.33S
DIXON          FAIR      63  28  26 W8        30.34F
RAWLINS        FAIR      61  15  16 W25G33    30.30R
SARATOGA       FAIR      63  25  23 W15G26    30.32S
LARAMIE        FAIR      67  30  25 W17       30.25R
CHEYENNE       FAIR      72  31  22 W21G30    30.19R
TORRINGTON     FAIR      74  28  18 NW12G21   30.10R
PINE BLUFFS    FAIR      73  28  19 NW25G38   30.13R

$$


USA.gov is the U.S. government's official web portal to all federal, state and local government web resources and services.